GFSNGP_sfc_30mbdewp_075.txt.gz
Dewpoint
29 29 29 29 29 30 33 34 31 30 31 35 40 41 42 44 42 39 38 39 40 39 40 41 43 44 44 46 46 48 54 55 54 54 54 54 54 54 54 54 54 54 53 52
24 26 28 23 24 27 28 34 35 35 34 39 42 45 44 44 41 37 36 36 36 36 36 37 38 39 40 40 41 43 43 43 44 45 49 54 54 54 54 54 54 54 54 53
18 24 21 17 26 21 26 34 33 31 35 41 43 44 44 42 39 36 35 33 33 33 33 34 35 36 35 36 37 38 38 39 40 41 42 43 44 48 53 54 54 55 54 54
19 21 9 17 15 31 31 32 35 36 39 42 40 39 40 42 38 35 33 32 31 31 32 32 34 34 34 33 32 33 33 34 35 36 38 39 41 42 43 44 47 53 54 54
16 16 12 12 28 32 34 36 40 38 41 37 36 35 35 37 35 33 32 31 30 30 30 31 33 33 32 30 30 29 29 30 31 33 34 35 36 37 39 41 40 39 35 35
23 16 9 20 23 31 29 31 39 41 40 37 38 33 31 34 32 30 29 29 28 28 29 30 31 32 30 28 28 27 27 28 29 29 30 31 34 34 35 35 32 30 28 29
22 19 19 21 22 30 21 33 40 43 40 40 37 36 33 31 29 28 28 28 28 28 28 29 30 30 29 27 27 26 27 27 27 27 28 29 30 31 31 30 29 28 28 28
22 20 16 34 34 27 31 41 39 39 36 33 32 30 28 27 26 26 25 26 26 26 27 28 29 29 28 27 27 26 25 25 25 26 26 27 28 28 29 29 28 28 27 26
24 22 34 35 36 37 40 38 37 37 35 33 31 29 28 25 24 24 24 25 25 26 26 27 27 29 27 27 26 25 24 24 24 25 25 25 26 26 26 26 26 26 26 25
31 33 34 34 33 32 35 37 37 37 35 32 28 26 24 24 23 23 24 24 24 24 24 25 26 26 28 27 26 25 23 23 23 24 24 24 24 25 25 24 24 24 25 25
30 34 33 33 33 33 32 30 28 27 27 26 25 24 23 23 22 22 21 22 22 23 23 23 24 24 25 26 24 23 23 22 22 22 23 22 23 24 23 25 25 23 23 24
28 34 33 31 32 33 30 29 26 24 23 23 23 22 22 21 21 20 19 20 20 20 20 22 22 22 22 24 25 23 22 22 22 21 21 20 20 21 22 22 22 22 23 23
30 31 31 30 30 31 28 26 25 23 22 22 22 21 20 19 19 19 18 18 18 18 19 19 20 21 21 21 22 22 22 20 19 18 18 17 17 17 15 17 18 19 20 20
32 34 29 30 25 24 24 23 23 22 22 21 20 19 18 17 16 16 16 17 16 16 17 18 18 18 19 19 20 20 19 19 18 17 17 16 16 15 15 14 13 13 14 16
28 27 26 26 25 23 23 22 20 19 18 17 17 17 16 15 14 15 15 14 13 13 13 14 15 15 17 18 16 17 18 18 17 16 15 15 14 13 12 12 11 10 9 10
27 27 26 25 23 23 22 20 18 16 15 15 14 14 14 14 13 11 11 11 10 10 11 11 12 13 14 14 14 14 14 14 14 15 15 14 12 11 10 10 9 8 8 7
27 25 25 24 23 22 22 20 18 17 16 15 15 14 12 11 9 8 8 8 8 8 9 10 11 12 13 13 13 13 13 12 12 12 13 13 12 11 10 8 7 7 6 6
24 24 23 23 21 19 19 18 17 16 15 14 13 11 10 8 6 4 4 4 5 7 7 10 11 11 12 13 13 12 12 12 11 10 9 9 10 8 7 6 6 5 5 3
20 20 20 19 18 17 16 15 14 14 13 12 10 8 7 5 4 3 2 3 4 5 7 8 12 10 11 13 11 10 9 9 9 8 8 6 6 6 5 5 4 4 4 3
16 16 16 15 15 14 13 13 13 12 11 9 7 5 4 4 3 3 3 3 4 6 8 9 10 10 9 7 8 7 7 7 7 5 4 3 3 3 3 3 3 2 2 1
13 13 13 12 12 12 12 12 11 11 10 8 5 4 4 3 3 3 2 -1 4 6 8 8 8 8 8 7 6 4 4 4 2 1 1 1 1 1 -0 -0 0 -0 -0 -1
12 12 12 12 11 11 11 10 9 7 6 6 5 5 5 5 3 3 4 3 4 5 6 6 6 4 3 3 4 4 4 3 2 2 1 -1 -0 0 -0 -2 -2 -1 -2 -3
13 13 12 12 11 11 11 10 9 6 4 4 3 4 6 6 6 4 2 4 3 3 6 5 2 2 3 -1 -1 0 -1 0 1 1 1 0 -1 -1 -1 -3 -4 -4 -3 -4
14 14 13 13 13 12 11 11 10 10 9 9 7 6 6 3 3 5 6 5 0 0 4 4 2 3 2 1 1 -0 -1 -3 -4 -2 -0 -1 -2 -2 -2 -4 -3 -5 -5 -3
15 15 14 14 13 11 10 11 10 9 9 9 10 11 7 7 4 3 3 5 3 3 1 -0 1 -1 -3 0 -1 1 1 -1 -3 -6 -6 -1 -0 -1 -2 -4 -4 -3 -4 -5
18 17 16 16 14 14 13 12 10 11 10 8 6 4 4 4 5 4 2 3 4 5 5 3 1 -1 -2 -2 -1 0 -0 2 1 -2 -5 -4 -2 -1 -1 -2 -3 -4 -5 -7
12 10 10 10 11 12 12 12 11 11 10 9 8 6 5 4 4 5 6 5 5 6 4 3 3 4 3 3 3 2 2 1 1 1 0 -1 -3 -2 -2 -2 -3 -4 -6 -7

GFSNGP_sfc_30mbdewp_078.txt.gz
Dewpoint
27 26 29 28 27 27 27 31 29 28 31 33 39 40 43 43 38 37 36 36 37 39 40 41 42 42 43 44 45 48 53 51 48 52 54 54 54 53 53 54 53 53 52 52
20 24 21 16 13 16 22 26 31 33 33 36 41 44 44 42 37 34 33 33 34 34 35 36 37 37 37 38 39 41 41 41 43 44 45 45 48 52 54 54 54 54 54 53
15 20 17 5 18 14 22 24 28 28 33 37 40 43 42 40 38 34 33 32 32 32 33 34 33 33 33 34 35 35 36 36 37 39 39 41 42 43 44 45 46 51 52 54
17 17 1 6 14 23 31 34 34 34 38 41 39 38 39 38 36 34 33 31 31 31 32 32 32 31 30 30 30 30 31 32 33 35 36 37 38 38 39 41 38 37 36 37
12 17 13 13 26 26 27 25 32 37 39 38 36 34 33 35 34 33 32 32 31 30 31 31 31 29 29 28 28 28 29 29 30 31 33 34 35 35 35 34 33 31 31 31
22 14 5 11 20 27 28 24 39 41 38 36 37 32 29 33 32 31 30 29 29 30 30 30 30 29 27 27 27 27 27 27 28 29 30 31 32 32 32 31 30 29 28 29
22 18 19 24 32 34 21 25 39 41 38 37 37 35 31 32 29 28 28 28 28 28 28 29 29 28 27 26 25 26 26 26 27 27 28 29 29 30 30 29 28 27 27 27
23 21 16 35 36 29 35 38 36 36 37 33 32 31 30 30 28 26 26 26 27 27 27 27 29 27 26 25 25 25 25 25 25 26 26 27 27 27 28 28 27 27 26 26
24 22 34 33 32 36 38 37 34 32 32 32 30 28 28 26 26 25 24 25 25 25 25 25 26 27 25 25 25 24 24 24 24 24 25 26 26 25 25 26 26 25 25 25
30 33 33 34 33 31 31 32 35 35 34 32 28 27 26 25 24 23 23 24 23 23 23 23 24 25 26 25 24 23 22 23 23 22 23 23 23 24 24 24 23 23 23 23
28 33 33 32 33 31 30 29 28 29 29 28 26 24 23 22 21 21 21 21 21 21 21 21 22 23 24 25 23 22 22 21 21 21 21 21 23 23 22 24 24 22 22 23
26 29 30 29 31 31 28 27 27 25 24 25 23 22 20 19 19 19 19 19 19 19 19 20 20 20 21 24 24 22 20 19 19 18 18 19 19 19 21 21 21 22 22 22
28 30 28 28 28 28 26 26 25 24 23 21 20 19 18 18 19 18 17 17 17 18 18 18 18 18 20 22 20 20 18 17 16 16 15 15 15 14 12 14 16 17 18 18
30 30 26 26 23 25 23 22 22 21 21 19 19 18 16 16 16 16 16 16 16 16 16 16 16 16 18 18 20 18 16 16 15 15 14 13 13 13 12 10 8 9 11 14
28 28 27 26 26 24 21 19 18 17 17 17 17 16 15 14 14 14 15 13 13 12 13 13 13 13 15 16 15 15 15 15 14 13 13 12 11 10 9 8 7 6 6 7
28 27 25 24 23 22 20 18 16 15 14 14 14 14 14 13 11 11 10 10 10 9 10 10 11 11 12 13 13 13 13 13 13 13 12 10 10 8 7 7 5 4 4 4
27 25 24 22 21 21 19 18 17 16 15 14 14 14 12 10 9 8 8 9 8 8 9 10 10 11 12 11 12 11 11 11 11 11 11 10 8 7 6 5 4 3 2 3
23 23 24 22 20 19 18 18 17 15 14 14 12 11 9 8 6 5 5 5 6 7 7 9 10 11 11 11 11 11 10 10 10 8 8 7 7 6 5 4 3 2 2 0
19 19 19 18 18 17 15 14 13 12 12 11 9 7 5 3 3 2 2 4 5 5 7 8 11 9 10 12 9 9 7 7 7 6 6 5 4 4 3 2 2 1 1 -1
15 15 14 14 14 13 12 11 11 10 9 8 5 3 3 2 1 1 2 3 3 5 8 9 9 8 7 6 6 6 6 5 5 4 3 2 1 1 1 1 0 -1 -1 -2
12 12 11 11 11 11 11 10 10 8 7 4 3 3 3 2 2 2 -1 1 5 7 7 7 6 7 6 5 4 2 2 1 0 1 0 0 -1 -1 -2 -2 -2 -2 -2 -3
11 11 10 10 10 10 10 9 8 7 6 4 4 4 4 2 2 2 3 1 5 6 5 5 5 1 1 4 3 2 2 2 1 0 -1 -2 -1 -1 -2 -4 -3 -3 -4 -6
12 12 11 10 9 9 9 7 5 5 5 4 4 4 5 5 6 2 -0 4 4 5 6 3 1 1 -1 -2 -1 -2 -1 -0 0 0 -1 -2 -2 -3 -2 -4 -5 -5 -4 -5
13 13 12 12 12 11 9 10 10 9 7 8 7 6 7 2 2 6 5 1 -0 2 4 3 1 1 0 -0 -0 -1 -2 -4 -5 -5 -2 -3 -4 -4 -4 -4 -4 -5 -6 -6
14 14 13 12 12 11 11 11 10 10 10 9 8 7 6 5 5 3 3 4 3 2 1 -0 -0 -2 -4 -0 -1 -0 0 -2 -3 -6 -6 -4 -2 -3 -3 -5 -5 -5 -6 -6
16 15 15 17 14 13 11 10 8 9 9 7 6 6 5 3 4 2 2 2 3 4 4 3 2 -0 -1 -3 -3 -2 -0 -0 -1 -1 -2 -3 -5 -3 -3 -3 -5 -5 -5 -5
12 12 11 10 11 12 12 12 11 10 10 8 7 6 5 3 2 3 3 3 4 4 4 3 1 1 1 2 2 1 -0 -1 -1 0 -1 -2 -4 -4 -4 -4 -5 -6 -7 -8

GFSNGP_sfc_30mbdewp_081.txt.gz
Dewpoint
27 26 28 28 24 21 21 24 23 19 23 27 32 39 43 39 37 35 34 35 35 36 36 38 39 41 42 43 46 50 48 47 47 48 53 54 54 55 55 54 53 53 53 54
21 25 20 14 13 14 18 21 22 25 26 31 34 41 43 38 36 34 33 33 33 33 33 33 34 36 37 38 38 40 40 40 41 42 43 44 46 47 49 49 48 54 53 53
14 20 16 8 15 14 20 28 29 27 29 32 39 42 42 38 35 34 32 32 32 32 32 31 31 32 33 33 34 34 35 36 37 38 39 39 40 41 42 40 40 40 39 42
16 17 -1 9 18 21 21 27 23 29 37 39 39 37 38 37 35 33 32 31 31 31 31 30 29 29 30 31 32 32 32 32 33 35 36 37 37 37 36 35 34 33 34 34
15 16 11 18 22 22 19 14 38 39 39 38 35 34 31 33 33 32 31 31 31 31 31 29 28 28 28 28 29 29 29 30 31 32 33 34 34 33 32 31 30 30 30 30
22 12 0 12 28 35 32 19 36 37 39 36 36 33 28 32 31 30 30 30 30 30 29 29 28 27 27 27 27 27 28 28 29 30 31 31 31 31 30 29 28 28 28 28
21 18 18 32 34 36 11 26 36 35 38 39 35 32 29 30 29 29 29 29 29 28 29 29 28 27 26 26 26 26 27 27 28 28 28 29 29 29 29 28 28 28 27 27
23 20 15 33 32 28 33 37 34 33 33 29 29 28 27 27 27 26 26 27 26 26 26 27 27 26 25 24 25 25 25 25 25 26 27 27 27 27 28 28 27 27 27 26
23 22 33 33 32 32 36 36 34 32 31 29 27 25 26 25 26 26 24 24 25 24 24 25 26 25 24 24 24 24 24 23 24 24 24 25 25 25 25 25 25 25 24 24
29 32 33 33 32 31 31 30 31 31 30 28 25 25 24 24 23 22 22 22 23 22 22 22 23 25 24 24 23 23 23 23 23 23 22 22 22 23 23 23 23 23 22 23
27 31 32 31 31 30 29 29 28 28 28 27 25 23 22 20 20 20 20 20 21 21 20 21 22 23 24 23 22 22 21 21 21 21 21 21 22 22 22 24 22 21 22 22
25 28 28 27 28 29 27 26 27 25 24 24 23 21 20 19 19 19 19 19 19 19 19 20 20 21 22 21 21 21 20 19 19 19 19 19 18 18 20 21 21 20 21 21
27 29 27 27 27 28 25 25 25 23 23 20 21 19 18 18 18 18 17 17 17 18 18 18 18 19 21 20 19 18 18 19 18 18 18 17 16 15 14 14 15 16 17 17
30 29 25 26 23 24 23 22 22 21 21 20 18 17 16 16 15 16 16 16 15 15 15 16 16 16 18 19 18 17 17 16 16 16 16 15 14 13 12 11 9 9 10 13
27 28 26 26 25 23 22 20 17 17 17 17 16 15 15 14 13 14 15 13 12 12 13 13 13 14 15 16 16 17 16 15 15 15 14 13 12 11 9 8 7 6 6 5
28 27 26 24 22 20 19 17 15 15 14 15 14 14 13 12 12 11 11 10 9 10 11 11 12 12 13 14 15 15 14 13 13 13 12 11 10 8 6 5 5 4 4 4
25 23 22 21 20 19 18 17 16 15 15 14 14 13 12 11 10 9 9 9 9 9 10 11 11 11 12 12 14 14 14 13 12 11 10 9 8 6 5 5 4 3 3 3
22 24 23 20 19 18 17 17 16 15 13 13 13 11 10 10 8 7 7 8 8 8 9 10 11 12 12 12 12 12 12 11 10 9 8 8 7 6 6 5 4 3 3 1
19 19 19 19 18 16 15 14 13 12 12 11 9 7 5 5 5 4 5 6 6 7 8 10 10 9 10 11 9 9 9 9 8 8 7 6 7 6 6 5 4 4 3 2
15 15 15 15 14 14 12 12 12 10 9 7 4 3 2 1 2 3 5 5 6 7 9 9 8 7 7 6 7 7 8 8 6 6 6 5 6 5 5 3 4 3 3 2
11 11 11 10 11 10 10 10 10 8 5 3 3 2 3 3 2 0 3 4 7 8 8 6 6 6 5 4 4 7 6 6 5 5 5 4 4 4 3 3 3 2 2 2
11 10 10 10 10 10 10 10 6 5 4 3 3 3 2 3 1 1 2 4 6 5 5 6 4 1 3 4 5 6 5 5 4 4 3 3 3 3 2 2 1 1 0 0
11 11 9 8 7 8 7 7 7 6 6 5 5 5 6 6 5 2 2 3 6 6 5 5 2 1 0 4 4 4 3 2 2 2 3 2 2 2 2 1 1 0 -0 -0
12 12 12 12 12 10 9 10 9 7 6 7 6 7 7 6 6 6 4 2 2 5 6 5 2 -0 2 4 4 3 2 2 1 0 1 -2 2 1 1 1 1 1 -0 -2
14 13 13 12 10 10 10 10 10 10 9 8 8 7 8 6 7 6 7 6 4 4 5 1 0 -1 2 4 3 3 3 3 3 3 2 1 1 1 1 1 -0 1 0 -0
14 13 15 16 14 12 11 10 8 9 9 9 8 9 7 6 6 5 5 4 5 5 7 7 5 5 5 4 3 3 4 4 4 3 2 3 2 1 1 1 1 1 1 0
14 14 12 11 11 12 13 13 12 11 11 11 10 8 7 6 6 5 5 6 7 7 7 7 6 5 5 5 5 5 5 4 2 3 3 3 2 2 1 1 1 1 -0 -2

GFSNGP_sfc_30mbdewp_087.txt.gz
Dewpoint
26 28 29 28 27 26 26 26 22 19 14 14 24 27 37 39 38 35 34 33 32 32 33 33 35 38 40 43 48 51 50 49 49 50 53 53 53 51 53 52 53 53 55 55
28 19 19 17 18 15 13 10 8 10 17 34 39 39 40 38 36 33 32 32 31 30 31 31 33 34 36 38 40 43 43 43 43 44 45 45 44 43 43 42 42 42 41 40
24 24 16 12 11 9 14 18 24 27 32 36 36 33 33 35 33 32 32 31 31 30 30 31 32 33 33 35 36 37 38 39 39 39 39 38 38 37 37 36 36 36 35 35
21 17 13 20 16 16 13 28 27 27 30 36 33 31 30 30 31 29 30 30 30 31 30 31 32 33 33 34 34 34 35 36 36 36 35 35 34 33 33 33 33 32 32 32
18 21 10 14 20 22 21 30 32 30 31 34 32 30 29 30 30 29 29 29 30 31 31 31 31 31 32 32 32 32 32 33 35 34 33 32 31 31 31 30 30 30 31 31
14 7 7 26 23 25 24 22 33 32 32 32 35 32 27 30 30 29 29 30 29 29 30 31 31 32 30 30 30 30 31 32 33 33 33 32 32 31 31 30 29 29 29 29
17 11 15 28 27 27 18 28 35 32 30 28 27 28 28 29 29 29 29 29 30 30 29 29 31 31 29 29 29 30 32 32 32 33 33 33 33 33 32 31 30 29 28 28
15 13 15 31 27 27 31 34 34 30 28 26 26 27 28 28 29 29 29 30 30 29 29 30 30 30 28 28 31 30 29 29 30 31 31 32 32 32 31 31 30 29 29 28
29 28 32 32 31 32 32 32 32 30 29 28 27 27 27 27 27 27 27 27 26 25 26 27 28 29 27 28 28 28 28 28 28 27 28 29 30 30 30 29 29 28 28 27
29 30 30 31 31 30 30 30 31 32 30 28 26 27 26 27 27 27 27 27 27 25 24 24 25 25 26 28 29 28 27 24 24 24 24 24 24 24 24 27 27 27 26 25
29 30 30 29 29 30 29 29 30 29 29 28 27 26 26 26 26 26 23 22 22 22 22 22 23 24 25 25 24 24 24 24 24 23 22 21 22 22 21 23 24 24 23 24
26 28 28 27 28 29 28 29 27 26 25 27 26 24 24 23 25 25 24 24 22 21 21 22 22 23 24 26 26 26 24 24 24 23 22 21 19 18 19 19 19 19 21 22
28 29 30 29 29 31 29 27 26 25 25 24 25 25 24 22 23 24 23 22 22 21 21 21 21 22 23 23 25 25 24 24 24 24 23 23 22 19 17 16 14 15 15 16
31 30 27 30 26 28 25 23 23 23 23 24 24 24 23 21 19 18 18 18 18 18 18 18 19 20 21 23 23 22 22 22 22 22 21 20 20 19 19 18 15 12 11 11
30 31 29 29 28 25 23 21 20 19 19 19 19 20 20 19 18 16 15 13 13 13 13 14 15 17 20 20 20 21 20 20 20 19 19 18 17 16 15 14 13 13 13 10
30 30 29 28 26 23 22 21 20 20 20 20 19 19 18 17 14 13 12 12 12 12 13 13 13 15 18 20 19 18 17 17 17 17 16 15 14 13 12 11 11 10 9 9
28 25 24 22 22 21 20 20 20 19 19 18 17 16 15 13 12 11 11 12 13 13 13 13 14 15 16 17 17 17 16 15 14 14 13 13 13 11 11 11 10 8 6 7
27 27 25 23 21 20 19 19 19 18 18 17 17 15 14 13 11 11 11 12 11 11 12 12 13 13 13 14 13 13 13 12 12 12 12 12 10 10 11 9 9 9 8 8
23 23 22 21 20 19 19 18 18 16 16 16 14 12 11 11 11 11 11 12 12 11 11 11 10 10 9 10 11 12 12 12 10 10 9 10 11 9 11 10 9 9 8 8
20 20 20 19 19 18 16 16 16 14 13 10 9 8 7 7 9 9 10 9 10 10 10 9 8 7 5 5 8 9 11 11 8 9 9 10 11 11 10 7 7 8 8 8
18 18 17 16 16 16 16 15 14 11 10 10 9 8 8 7 6 9 11 9 10 9 8 6 4 5 3 5 5 11 11 10 9 9 10 9 9 8 8 8 7 7 7 7
17 16 16 16 16 15 15 12 11 11 10 8 8 8 9 8 8 7 8 9 7 7 7 6 5 4 2 8 8 9 8 8 8 8 8 8 8 8 7 7 6 6 6 6
16 16 16 16 15 14 13 12 12 11 10 9 10 11 11 9 7 8 9 6 6 6 5 9 5 5 4 9 9 8 7 6 6 6 6 7 6 6 6 6 6 6 5 5
16 15 15 14 14 12 11 11 10 11 12 11 11 12 11 10 12 7 7 6 5 9 9 8 6 4 4 8 7 7 6 7 6 7 6 5 6 6 5 5 4 4 4 4
15 14 13 12 10 10 10 10 10 9 10 9 8 8 9 8 10 10 9 9 6 6 9 7 5 6 7 8 8 7 6 7 8 6 5 6 5 5 5 5 5 4 4 4
13 14 13 13 11 10 10 9 9 10 10 12 13 14 14 11 9 8 9 8 7 7 7 12 11 11 8 9 8 7 7 6 7 8 7 5 5 5 4 4 4 3 3 4
16 14 12 11 11 11 12 11 12 12 13 13 12 16 12 14 12 9 9 9 11 11 10 10 11 12 11 9 7 7 8 9 9 7 6 4 4 5 5 5 4 3 4 4